Regional Weather Roundup
Issued by NWS

Home | Current Version | Previous Version | Text Only | Print | Product List | Glossary Off
Versions: 1 2 3 4 5 6 7 8 9 10 11 12 13 14 15 16 17 18 19 20 21 22 23 24 25 26 27 28

000
ASUS45 KSLC 231210
RWRUT

UTAH REGIONAL WEATHER ROUNDUP
NATIONAL WEATHER SERVICE SALT LAKE CITY UT
600 AM MDT SAT JUL 23 2016

UTZ001>011-023>025-231300-

NORTHERN UTAH

CITY           SKY/WX    TMP DP  RH WIND       PRES   REMARKS
BRIGHAM CITY     N/A     63  38  40 CALM      30.13R
HILL AFB       MOCLDY    66  35  32 E12       30.14R
LOGAN          CLEAR     54  42  64 W3        30.15S
OGDEN          PTCLDY    66  40  38 SW5       30.11R
PROVO AIRPORT  CLEAR     61  52  72 E5        30.12R
SALT LAKE CITY PTCLDY    70  36  28 NW6       30.11R
VERNAL         CLOUDY    59  47  64 W8        30.16S
WENDOVER       PTCLDY    70  30  23 W12       30.15S
HEBER CITY     CLEAR     54  45  71 CALM      30.19R

$$

UTZ012>022-026-027-231300-

SOUTHERN/CENTRAL UTAH

CITY           SKY/WX    TMP DP  RH WIND       PRES   REMARKS
BLANDING       PTCLDY    62  47  57 N7        30.29R
BRYCE CANYON   CLEAR     48  44  86 SW3       30.36S
CEDAR CITY     CLEAR     64  37  36 CALM      30.18R
DELTA          CLEAR     68  30  24 N7        30.12R
MILFORD        CLEAR     63  23  21 CALM      30.12S
MOAB/CYNLANDS  PTCLDY    69  51  52 SE5       30.09S
PRICE          PTCLDY    61  48  62 N10       30.20S
ST GEORGE      SUNNY     82  46  28 SE8       29.98R
KANAB          CLEAR     64  48  55 NE3       30.18R

$$

REGIONAL REPORTS     COLORADO/ARIZONA

CITY           SKY/WX    TMP DP  RH WIND       PRES   REMARKS
CRAIG, CO      CLOUDY    50  44  80 CALM      30.26R
GRAND JUNCTION CLEAR     66  54  65 E12       30.15R
RIFLE          CLOUDY    58  50  75 CALM      30.23R
MONTROSE       CLOUDY    58  49  72 S5        30.26R
CORTEZ         CLEAR     54  47  77 E5        30.24S
PAGE, AZ       PTCLDY    77  48  35 W5        30.08S
GRAND CANYON   PTCLDY    54  51  90 CALM      30.30R
KINGMAN        PTCLDY    79  45  29 SE9       30.01S
FLAGSTAFF      MOCLDY    58  49  72 CALM      30.31R

$$

REGIONAL REPORTS    NEVADA/IDAHO/WYOMING

CITY           SKY/WX    TMP DP  RH WIND       PRES   REMARKS
LAS VEGAS, NV  PTCLDY    89  25  10 CALM      29.83R
ELY            PTCLDY    44  19  36 S9        30.28R
ELKO           PTCLDY    46  22  38 CALM      30.22R
POCATELLO, ID  CLEAR     53  36  52 W3        30.18R
BURLEY         CLEAR     60  42  51 W13G22    30.15R
EVANSTON, WY   CLOUDY    60  34  37 CALM      30.30R
ROCK SPRINGS   CLOUDY    60  37  42 SW9       30.26R
KEMMERER         N/A     52  27  37 NW10      30.30S

$$




USA.gov is the U.S. government's official web portal to all federal, state and local government web resources and services.